CAPE
1368 1307 1324 1333 1303 1265 1234 1202 1191 1179 1138 1128 1107 996 1096 1094 1132 1133 1064 968 876 821 747 641 587 597 562 559 492 387 258 170 0 0 0 0 0 0 0 0 0 0
1394 1329 1272 1262 1234 1188 1180 1169 1186 1161 1126 1084 1037 1006 1054 1070 1080 1055 889 838 814 713 614 542 553 560 530 474 278 143 0 0 0 0 0 0 0 0 0 0 0 0
1367 1261 1256 1228 1186 1144 1156 1167 1172 1151 1126 1087 965 1014 1017 975 982 858 480 551 704 622 536 479 465 410 391 187 0 0 0 0 0 0 0 0 0 0 0 0 0 0
1324 1208 1264 1224 1170 1174 1210 1215 1181 1141 1085 1060 1132 1064 962 882 877 774 545 461 571 489 486 469 466 392 74 10 0 0 0 0 0 0 0 0 0 0 0 0 0 0
1239 1294 1298 1238 1207 1212 1215 1185 1130 1062 998 1021 1124 1128 938 842 695 679 630 505 458 480 411 425 377 400 195 39 0 0 0 0 0 0 0 0 0 0 0 0 0 0
1147 1198 1207 1193 1205 1188 1140 1096 1046 988 900 963 1014 996 781 661 591 615 615 545 540 483 439 479 422 181 8 30 0 0 0 0 0 0 0 0 0 0 0 0 0 0
1102 1147 1135 1133 1138 1087 1018 981 956 891 904 963 972 936 795 708 738 626 595 627 385 388 328 351 210 67 34 0 0 0 0 0 0 0 0 0 0 0 0 0 0 0
1232 1064 1139 1139 1102 1037 916 915 882 825 836 862 851 826 755 723 684 662 625 377 153 286 68 64 58 37 35 39 0 0 0 0 0 0 0 0 0 0 0 0 0 0
1197 1170 1190 1189 1149 1088 909 883 853 788 716 718 690 668 629 607 553 492 303 272 402 408 361 223 73 78 50 40 0 0 0 0 0 0 0 0 0 0 0 0 0 0
1171 1203 1221 1206 1183 1114 955 873 830 767 716 634 623 600 584 459 439 333 375 348 335 351 281 242 25 0 25 34 0 0 0 0 0 0 0 0 0 0 0 0 0 0
1213 1233 1230 1200 1161 1102 935 827 797 748 680 631 564 563 541 486 435 100 200 232 272 263 207 57 14 10 22 0 0 0 0 0 0 0 0 0 0 0 0 0 0 0
1285 1273 1254 1201 1128 1008 840 826 763 728 680 634 605 588 528 454 337 278 226 196 201 187 76 6 0 17 44 0 0 0 0 0 0 0 0 0 0 0 0 0 0 0
1332 1300 1234 1140 1010 845 796 836 805 762 762 705 645 579 519 449 349 275 188 171 213 170 117 61 18 0 0 0 0 0 0 0 0 0 0 0 0 0 0 0 0 0
1410 1378 1350 1130 1004 904 844 853 826 813 770 693 655 591 474 411 305 230 145 169 193 136 109 127 0 0 0 0 0 0 0 0 0 0 0 0 0 0 0 0 0 0
1523 1528 1538 1230 1038 1028 950 906 814 785 693 642 552 481 410 330 209 28 128 159 159 159 140 0 0 0 0 0 0 0 0 0 0 0 0 0 0 0 0 0 0 0
1653 1655 1553 1294 1145 1062 903 867 774 680 603 565 455 360 306 212 146 145 49 108 120 187 65 0 0 0 0 0 0 0 0 0 0 0 0 0 0 0 0 0 0 0
1686 1557 1379 1322 1257 1082 915 897 906 716 535 503 388 299 201 151 131 129 114 86 0 98 186 0 0 0 0 0 0 0 0 0 0 0 0 0 0 0 0 0 0 0
1600 1539 1498 1432 1236 1075 1032 851 811 544 464 408 366 245 126 134 126 144 114 85 22 0 158 103 0 0 0 0 0 0 0 0 0 0 0 0 0 0 0 0 0 0
1548 1582 1541 1331 1132 912 926 787 586 377 391 334 294 195 124 93 111 118 89 78 52 0 134 0 0 0 0 0 0 0 0 0 0 0 0 0 0 0 0 0 0 0
1637 1590 1328 1114 1024 758 560 493 554 450 388 288 252 184 143 102 66 112 101 71 56 33 0 0 0 0 0 0 0 0 0 0 0 0 0 0 0 0 0 0 0 0
1470 1312 1096 1034 873 636 483 444 539 550 502 349 269 221 144 101 80 121 115 94 69 60 0 0 0 0 0 0 0 0 0 0 0 0 0 0 0 0 0 0 0 0
1205 1123 1055 973 736 535 414 524 593 524 484 383 262 177 112 75 89 112 114 69 59 42 52 0 0 0 222 0 0 0 0 0 0 0 0 0 0 0 0 0 0 0
1172 1135 1017 888 680 481 320 237 369 346 347 250 201 168 100 87 106 124 87 71 68 90 68 6 0 56 253 0 0 0 0 0 0 0 0 0 0 0 0 0 0 0
1198 1072 966 862 606 317 260 248 213 181 258 241 176 150 110 117 106 104 84 59 68 14 32 28 222 240 0 0 0 0 0 0 0 0 1 7 1 0 0 0 0 0
1005 940 849 685 606 329 289 418 306 313 278 227 157 130 129 93 89 112 64 44 59 93 66 67 47 45 15 0 0 0 10 42 32 1 5 3 0 0 0 0 0 0
914 835 704 648 534 369 526 568 460 251 233 212 183 144 123 111 79 74 50 63 49 43 73 99 61 42 28 0 0 0 40 71 37 21 4 0 0 0 0 0 0 0
Wind_Speed
24 25 28 28 28 27 29 29 28 30 29 29 28 26 26 25 25 27 26 25 26 28 28 28 27 25 25 27 26 24 22 21 nan nan nan nan nan nan nan nan nan nan
25 27 29 29 28 26 27 29 30 30 29 28 27 27 26 25 24 25 25 26 26 28 27 25 24 24 25 25 23 21 nan nan nan nan nan nan nan nan nan nan nan nan
26 28 30 29 28 28 29 28 29 28 28 28 27 26 25 24 26 25 23 25 28 27 25 21 21 22 22 20 nan nan nan nan nan nan nan nan nan nan nan nan nan nan
27 29 29 29 29 30 29 29 27 26 27 27 25 24 24 23 24 25 25 25 27 25 23 22 19 18 nan nan nan nan nan nan nan nan nan nan nan nan nan nan nan nan
29 29 29 29 28 29 29 29 27 25 25 24 22 22 23 25 24 24 26 25 22 21 22 21 16 15 18 nan nan nan nan nan nan nan nan nan nan nan nan nan nan nan
29 29 29 29 29 29 27 26 25 24 24 23 23 22 22 24 24 24 25 24 20 21 19 15 14 16 nan nan nan nan nan nan nan nan nan nan nan nan nan nan nan nan
30 29 29 28 28 27 26 25 23 23 24 24 24 23 23 23 23 22 20 17 20 20 17 13 14 nan nan nan nan nan nan nan nan nan nan nan nan nan nan nan nan nan
29 28 28 26 27 25 25 23 22 23 24 24 24 22 22 22 22 21 18 15 16 18 nan nan nan nan nan nan nan nan nan nan nan nan nan nan nan nan nan nan nan nan
27 27 26 26 25 23 23 22 21 22 22 23 21 20 19 20 20 18 17 16 16 15 13 12 nan nan nan nan nan nan nan nan nan nan nan nan nan nan nan nan nan nan
25 25 25 24 23 22 22 20 20 20 20 20 19 19 20 19 19 16 15 15 15 14 14 13 nan nan nan nan nan nan nan nan nan nan nan nan nan nan nan nan nan nan
24 24 23 22 22 21 21 19 19 19 18 19 19 21 21 21 18 16 15 14 14 15 15 nan nan nan nan nan nan nan nan nan nan nan nan nan nan nan nan nan nan nan
22 22 22 21 21 21 20 18 18 18 18 17 20 22 22 20 18 15 15 15 14 15 nan nan nan nan nan nan nan nan nan nan nan nan nan nan nan nan nan nan nan nan
20 21 21 21 20 20 18 17 17 17 17 18 18 21 21 17 14 14 14 16 15 15 15 nan nan nan nan nan nan nan nan nan nan nan nan nan nan nan nan nan nan nan
20 21 21 21 20 19 16 16 16 15 15 16 17 17 17 15 13 12 12 13 12 12 11 12 nan nan nan nan nan nan nan nan nan nan nan nan nan nan nan nan nan nan
21 20 20 21 20 18 16 15 14 14 14 15 15 15 13 12 10 nan 12 10 9 10 10 nan nan nan nan nan nan nan nan nan nan nan nan nan nan nan nan nan nan nan
22 20 20 20 19 17 16 14 13 13 13 13 14 14 13 11 9 10 nan 11 11 10 nan nan nan nan nan nan nan nan nan nan nan nan nan nan nan nan nan nan nan nan
22 20 20 19 17 17 15 14 13 12 12 12 12 13 13 12 11 12 11 nan nan nan 10 nan nan nan nan nan nan nan nan nan nan nan nan nan nan nan nan nan nan nan
21 20 19 18 17 17 16 14 13 12 11 11 12 13 12 12 12 12 12 nan nan nan 11 11 nan nan nan nan nan nan nan nan nan nan nan nan nan nan nan nan nan nan
21 20 18 17 17 17 16 15 13 12 11 11 12 12 13 nan 14 14 nan nan nan nan 12 nan nan nan nan nan nan nan nan nan nan nan nan nan nan nan nan nan nan nan
20 19 18 17 17 17 16 15 13 12 11 11 12 12 14 16 nan 18 16 nan nan nan nan nan nan nan nan nan nan nan nan nan nan nan nan nan nan nan nan nan nan nan
19 18 18 17 18 17 16 14 13 12 12 12 13 14 15 17 nan 19 18 nan nan nan nan nan nan nan nan nan nan nan nan nan nan nan nan nan nan nan nan nan nan nan
18 18 18 17 18 17 16 14 13 13 14 13 14 15 16 nan nan 20 22 nan nan nan nan nan nan nan 28 nan nan nan nan nan nan nan nan nan nan nan nan nan nan nan
18 18 18 17 17 17 16 15 14 14 14 15 17 18 20 nan 22 23 nan nan nan nan nan nan nan nan 29 nan nan nan nan nan nan nan nan nan nan nan nan nan nan nan
17 17 17 17 17 17 17 16 15 15 15 15 19 21 23 25 26 26 nan nan nan nan nan nan 21 22 nan nan nan nan nan nan nan nan nan nan nan nan nan nan nan nan
16 16 16 16 16 17 17 17 16 16 16 17 20 23 26 nan nan 28 nan nan nan nan nan nan nan nan nan nan nan nan nan nan nan nan nan nan nan nan nan nan nan nan
15 15 16 16 16 17 17 17 18 18 19 20 22 24 26 26 nan nan nan nan nan nan nan nan nan nan nan nan nan nan nan nan nan nan nan nan nan nan nan nan nan nan
Wind_Direction
278 278 282 284 290 297 302 304 306 309 311 312 311 308 303 302 303 302 296 292 293 290 287 282 274 271 271 263 252 243 239 238 nan nan nan nan nan nan nan nan nan nan
278 279 277 281 286 293 300 304 307 310 311 309 306 303 299 300 298 299 294 289 287 284 279 274 270 268 264 256 247 244 nan nan nan nan nan nan nan nan nan nan nan nan
276 276 281 287 294 298 300 302 307 309 307 304 303 302 302 300 300 298 291 291 288 281 269 265 265 257 249 241 nan nan nan nan nan nan nan nan nan nan nan nan nan nan
275 279 283 287 293 297 298 301 303 302 300 303 307 306 302 300 301 304 305 298 290 285 274 263 251 238 nan nan nan nan nan nan nan nan nan nan nan nan nan nan nan nan
276 277 282 289 293 296 298 303 304 302 303 306 305 303 300 303 305 304 305 300 285 276 276 266 241 229 230 nan nan nan nan nan nan nan nan nan nan nan nan nan nan nan
275 279 285 290 293 296 299 302 302 300 301 304 308 304 300 302 306 307 309 309 289 274 270 254 234 233 nan nan nan nan nan nan nan nan nan nan nan nan nan nan nan nan
277 281 287 289 292 296 298 298 296 295 298 301 299 301 303 304 302 301 302 298 286 276 270 260 250 nan nan nan nan nan nan nan nan nan nan nan nan nan nan nan nan nan
279 281 284 287 291 294 295 295 294 294 296 297 300 301 304 304 300 298 298 296 282 278 nan nan nan nan nan nan nan nan nan nan nan nan nan nan nan nan nan nan nan nan
278 280 283 288 291 292 295 294 295 296 298 301 303 305 303 302 302 298 294 290 289 285 273 268 nan nan nan nan nan nan nan nan nan nan nan nan nan nan nan nan nan nan
278 279 284 287 289 291 295 295 296 298 300 303 307 309 305 298 300 296 287 290 291 287 281 276 nan nan nan nan nan nan nan nan nan nan nan nan nan nan nan nan nan nan
277 279 283 286 287 289 294 295 298 299 304 310 312 314 311 306 301 295 290 288 289 287 284 nan nan nan nan nan nan nan nan nan nan nan nan nan nan nan nan nan nan nan
277 279 283 286 287 289 294 296 297 301 307 314 317 317 316 312 305 298 295 293 288 285 nan nan nan nan nan nan nan nan nan nan nan nan nan nan nan nan nan nan nan nan
275 278 280 284 286 287 289 292 297 303 310 316 320 321 321 317 307 300 293 295 293 287 279 nan nan nan nan nan nan nan nan nan nan nan nan nan nan nan nan nan nan nan
271 274 279 282 283 284 288 292 294 303 312 316 319 323 327 327 322 308 302 305 305 293 280 263 nan nan nan nan nan nan nan nan nan nan nan nan nan nan nan nan nan nan
266 271 274 279 283 283 286 290 294 302 310 316 321 325 330 336 327 nan 318 315 309 298 284 nan nan nan nan nan nan nan nan nan nan nan nan nan nan nan nan nan nan nan
268 270 274 277 280 282 286 288 291 299 308 315 322 327 330 332 324 325 nan 320 311 302 nan nan nan nan nan nan nan nan nan nan nan nan nan nan nan nan nan nan nan nan
268 272 275 276 276 277 280 284 288 294 305 312 319 325 327 325 324 326 324 nan nan nan 299 nan nan nan nan nan nan nan nan nan nan nan nan nan nan nan nan nan nan nan
267 272 273 270 271 276 279 278 281 293 302 309 316 320 317 316 322 324 319 nan nan nan 297 295 nan nan nan nan nan nan nan nan nan nan nan nan nan nan nan nan nan nan
269 272 269 265 267 273 274 275 284 293 298 305 314 311 308 nan 316 313 nan nan nan nan 296 nan nan nan nan nan nan nan nan nan nan nan nan nan nan nan nan nan nan nan
268 268 265 263 264 268 271 277 287 293 294 296 294 295 305 305 nan 310 308 nan nan nan nan nan nan nan nan nan nan nan nan nan nan nan nan nan nan nan nan nan nan nan
266 263 261 261 264 268 272 279 286 286 290 289 294 300 300 301 nan 304 303 nan nan nan nan nan nan nan nan nan nan nan nan nan nan nan nan nan nan nan nan nan nan nan
261 259 259 260 265 269 274 279 285 290 291 285 286 285 285 nan nan 294 297 nan nan nan nan nan nan nan 299 nan nan nan nan nan nan nan nan nan nan nan nan nan nan nan
258 258 259 262 265 269 274 278 282 285 279 279 284 285 286 nan 291 292 nan nan nan nan nan nan nan nan 302 nan nan nan nan nan nan nan nan nan nan nan nan nan nan nan
255 257 258 260 264 270 273 273 274 274 277 278 286 285 285 286 286 285 nan nan nan nan nan nan 292 299 nan nan nan nan nan nan nan nan nan nan nan nan nan nan nan nan
252 255 259 261 263 268 271 275 278 279 276 275 278 281 282 nan nan 286 nan nan nan nan nan nan nan nan nan nan nan nan nan nan nan nan nan nan nan nan nan nan nan nan
243 247 252 259 262 264 268 274 273 273 278 279 277 278 281 282 nan nan nan nan nan nan nan nan nan nan nan nan nan nan nan nan nan nan nan nan nan nan nan nan nan nan